EDT,Max TemperatureF,Mean TemperatureF,Min TemperatureF,Max Dew PointF,MeanDew PointF,Min DewpointF,Max Humidity, Mean Humidity, Min Humidity, Max Sea Level PressureIn, Mean Sea Level PressureIn, Min Sea Level PressureIn, Max VisibilityMiles, Mean VisibilityMiles, Min VisibilityMiles, Max Wind SpeedMPH, Mean Wind SpeedMPH, Max Gust SpeedMPH,PrecipitationIn, CloudCover, Events, WindDirDegrees
2013-9-1,95,85,75,79,75,73,100,77,53,29.97,29.92,29.87,10,9,5,10,5,17,0.00,2,,213
2013-9-2,93,84,75,79,75,36,100,81,22,29.99,29.93,29.87,10,10,0,15,4,28,0.00,2,,229
2013-9-3,93,84,75,79,76,36,100,81,24,30.00,29.94,29.89,10,8,1,9,3,,0.00,2,,250
2013-9-4,95,85,75,79,76,73,100,79,53,30.08,30.02,29.98,10,9,7,8,3,17,0.00,1,,227
2013-9-5,95,85,75,79,76,73,100,84,53,30.11,30.06,30.00,10,9,7,17,2,24,0.00,1,,235
2013-9-6,93,83,73,79,75,72,100,81,49,30.09,30.04,29.98,10,8,1,9,2,16,0.00,2,,67
2013-9-7,91,81,71,75,72,68,100,78,46,30.08,30.03,29.97,10,8,0,8,2,,0.00,1,,40
2013-9-8,91,80,69,75,72,70,100,78,49,30.02,29.97,29.92,10,8,2,8,1,,0.00,1,,47
2013-9-9,93,82,71,73,72,70,100,76,49,30.10,30.03,29.98,10,10,5,13,3,16,0.00,1,,131
2013-9-10,91,81,71,75,74,72,100,79,55,30.18,30.13,30.09,10,9,5,17,4,22,0.00,1,,70
2013-9-11,91,82,73,79,74,73,100,85,59,30.17,30.12,30.07,10,8,2,15,5,17,0.00,1,,63
2013-9-12,91,81,71,77,72,66,100,77,43,30.09,30.00,29.90,10,9,4,9,2,,0.00,0,,61
2013-9-13,93,82,71,77,74,72,100,78,49,29.93,29.85,29.78,10,10,5,10,2,,0.00,0,,274
2013-9-14,93,83,73,75,73,70,94,74,49,30.02,29.90,29.82,10,10,7,7,2,,0.00,2,,347
2013-9-15,93,84,75,79,76,75,100,87,56,30.11,30.06,30.01,10,7,1,17,3,31,0.00,3,,79
2013-9-16,93,83,73,79,75,73,100,82,52,30.12,30.07,30.00,10,7,0,10,1,,0.00,3,,106
2013-9-17,89,81,73,79,75,72,100,89,62,30.14,30.09,30.04,10,8,1,15,3,26,0.00,4,,72
2013-9-18,87,78,69,72,69,66,94,77,55,30.16,30.12,30.08,10,10,10,15,7,22,0.00,1,,65
2013-9-19,89,78,66,73,69,63,94,76,52,30.14,30.09,30.05,10,10,10,14,4,,0.00,1,,65
2013-9-20,89,79,69,73,71,68,100,79,52,30.08,30.02,29.93,10,9,1,9,2,,0.00,1,,115
2013-9-21,91,80,68,75,72,66,100,83,55,29.96,29.85,29.75,10,9,3,15,2,20,0.00,2,,204
2013-9-22,82,78,75,75,75,73,100,94,79,29.85,29.78,29.73,10,9,0,12,3,,0.00,7,,256
2013-9-23,78,76,73,73,73,72,100,96,83,29.99,29.93,29.85,10,9,3,12,3,,0.00,7,,77
2013-9-24,84,78,71,73,72,70,100,88,70,29.98,29.93,29.86,10,10,0,16,6,18,0.00,7,,74
2013-9-25,87,79,71,77,74,72,100,89,66,29.86,29.80,29.76,10,9,3,8,3,,0.00,4,,74
2013-9-26,77,72,68,75,71,66,100,91,78,29.95,29.87,29.77,10,8,1,12,5,,0.00,7,,17
2013-9-27,84,73,62,66,65,63,100,79,54,30.07,30.00,29.94,10,8,4,13,6,17,0.00,1,,30
2013-9-28,82,73,64,64,62,34,94,71,25,30.14,30.08,30.04,10,10,10,13,6,20,0.00,2,,43
2013-9-29,84,74,64,68,65,63,94,77,54,30.08,30.04,29.97,10,10,10,10,4,,0.00,2,,55
2013-9-30,78,70,62,70,64,34,100,85,32,30.07,30.02,29.98,10,10,1,9,1,,0.00,1,,64